Shreveport Downtown, LA

9:08 PM CDT on June 25, 2017 (GMT -0500)
Shreveport Downtown

Weather History for KDTN - November, 2012

Change the Weather History Date:

Saturday, November 3, 2012

  Actual Average (KBAD) Record (KBAD)
Temperature  
Mean Temperature 72 °F -  
Max Temperature 82 °F 67 °F 84 °F (2016)
Min Temperature 63 °F 47 °F 30 °F (1996)
Cooling Degree Days 7    
Growing Degree Days 22 (Base 50)    
Moisture  
Dew Point 63 °F    
Average Humidity 76    
Maximum Humidity 97    
Minimum Humidity 52    
Precipitation  
Precipitation 0.00 in - - ()
Sea Level Pressure  
Sea Level Pressure 30.04 in    
Wind  
Wind Speed 7 mph (SW)    
Max Wind Speed 18 mph    
Max Gust Speed 25 mph    
Visibility 10 miles    
Events Thunderstorm    
Averages and records for this station are not official NWS values.
T = Trace of Precipitation, MM = Missing Value Source: NWS Daily Summary

Daily Weather History Graph

Daily Weather History Graph

Search for Another Location

Airport or City:

Trip Planner

Search our weather history database for the weather conditions in past years. The results will help you decide how hot, cold, wet, or windy it might be!

Date:

Astronomy

Nov. 03, 2012 Rise Set
Actual Time 7:34 AM CDT 6:22 PM CDT
Civil Twilight 7:09 AM CDT 6:47 PM CDT
Nautical Twilight 6:39 AM CDT 7:16 PM CDT
Astronomical Twilight 6:11 AM CDT 7:45 PM CDT
Moon 10:08 PM CDT (11/3) 11:33 AM CDT (11/3)
Length of Visible Light 11h 38m
Length of Day
10h 47m
Waning Gibbous, 80% of the Moon is Illuminated
Nov 3
Waning Gibbous
Nov 6
Last Quarter
Nov 13
New
Nov 20
First Quarter
Nov 28
Full

Hourly Weather History & Observations

Time (CDT) Temp. Heat Index Dew Point Humidity Pressure Visibility Wind Dir Wind Speed Gust Speed Precip Events Conditions
12:53 AM 68.0 °F - 61.0 °F 78% 30.01 in 10.0 mi SSW 9.2 mph 18.4 mph N/A   Clear
1:53 AM 66.9 °F - 62.1 °F 84% 30.00 in 10.0 mi SW 6.9 mph - N/A   Clear
2:53 AM 64.9 °F - 62.1 °F 90% 30.00 in 10.0 mi SSW 4.6 mph - N/A   Clear
3:53 AM 64.9 °F - 62.1 °F 90% 30.01 in 10.0 mi SW 6.9 mph - N/A   Clear
4:53 AM 64.0 °F - 62.1 °F 93% 30.03 in 10.0 mi SSW 4.6 mph - N/A   Clear
5:53 AM 63.0 °F - 61.0 °F 93% 30.05 in 10.0 mi SSW 4.6 mph - N/A   Clear
6:53 AM 63.0 °F - 62.1 °F 97% 30.06 in 10.0 mi South 3.5 mph - N/A   Clear
7:53 AM 63.0 °F - 62.1 °F 97% 30.07 in 10.0 mi SSW 4.6 mph - N/A   Clear
8:53 AM 66.0 °F - 64.0 °F 93% 30.09 in 10.0 mi Calm Calm - N/A   Clear
9:53 AM 71.1 °F - 66.0 °F 84% 30.10 in 10.0 mi SW 9.2 mph - N/A   Clear
10:53 AM 75.0 °F - 66.9 °F 76% 30.10 in 10.0 mi WSW 9.2 mph - N/A   Clear
11:53 AM 77.0 °F - 66.9 °F 71% 30.09 in 10.0 mi SW 10.4 mph - N/A   Partly Cloudy
12:53 PM 79.0 °F - 64.0 °F 60% 30.06 in 10.0 mi West 12.7 mph - N/A   Partly Cloudy
1:53 PM 80.1 °F 81.7 °F 64.0 °F 58% 30.03 in 10.0 mi Variable 5.8 mph - N/A   Clear
2:53 PM 81.0 °F 81.9 °F 62.1 °F 52% 30.01 in 10.0 mi West 6.9 mph - N/A   Partly Cloudy
3:53 PM 80.1 °F 81.5 °F 63.0 °F 56% 30.00 in 10.0 mi West 5.8 mph - N/A   Clear
4:35 PM 80.6 °F 81.8 °F 62.6 °F 54% 30.00 in 10.0 mi WSW 3.5 mph - N/A Thunderstorm Thunderstorm
4:53 PM 79.0 °F - 64.9 °F 62% 29.99 in 10.0 mi ESE 5.8 mph - N/A   Clear
5:53 PM 75.9 °F - 66.0 °F 71% 30.01 in 10.0 mi SE 5.8 mph - N/A   Scattered Clouds
6:53 PM 73.9 °F - 64.0 °F 71% 30.02 in 10.0 mi South 4.6 mph - N/A   Clear
7:53 PM 73.9 °F - 63.0 °F 68% 30.02 in 10.0 mi SSW 8.1 mph - N/A   Clear
8:53 PM 73.0 °F - 63.0 °F 71% 30.04 in 10.0 mi SW 18.4 mph 25.3 mph N/A   Clear
9:53 PM 70.0 °F - 60.1 °F 71% 30.03 in 10.0 mi West 8.1 mph - N/A   Clear
10:53 PM 68.0 °F - 57.9 °F 70% 30.04 in 10.0 mi WSW 5.8 mph - N/A   Clear
11:53 PM 66.0 °F - 59.0 °F 78% 30.04 in 10.0 mi NNW 3.5 mph - N/A   Clear